Погода в Чернушке

Погода в Чернушке : погода сейчас, прогноз погоды и архив. Всё, что Вы хотите узнать о погоде в Чернушке!

Хотите узнать прогноз погоды в Чернушке? Тогда Вам сюда: Погода в Чернушке

Поиск расширенной информации на нашем сайте:

Другие новости

Новости СМИ2

Главная страница сайта

Новости сайта

03.07.2017

Напоминаем, что на нашем специализированном сайте Метеоцентр.Азия вы можете получить высокодетализированные автоматические прогнозы погоды по пунктам России, СНГ и мира в авиационном формате (включающие направление и скорость ветра, видимость, явления погоды, количество и форму облачности, нижнюю и верхнюю границу облачности).


Погода в Чернушке - сегодня

Время (UTC), дата Ветер
(°,м/с) 
Видим.   Явления Облачность Т
(°С)
Тd
(°С)
f(%) Тe
(°С)
Pmin
(гПа)
dP
(гПа)
Po
(мм)
O2
(г/м3)
Тmin Tmax R s Состояние
почвы
12 20.02.18 200 (Ю) 10 км  слаб. снег{ливн. осадки}  10/10 2000 м 
[Ac As]
-6.5 -10.1 76 -8  1016.6  -0.7  748  310           
18 20.02.18 160 (Ю) 20000 м  {снег}  10/10 2000 м 
[Ac As]
-10.4 -12 88 -10  1015.7  -0.5  747  314           
21 20.02.18 180 (Ю) 20000 м    8/8 2000 м средняя 
[Ac trans]
-12.8 -14.8 85 -15  1015.5  -0.4  747  317           
00 21.02.18 270 (З) 4000 м  слаб. снег  10/10 600 м 
[Ns]
-14.4 -16.7 83 -14  1015.2  -0.4  747  319           
09 21.02.18 230 (ЮЗ) 4000 м  слаб. ливневой снег  10/10 600 м кучево-дожд. 
[Cb cap]
-7.6 -11.2 75 -10  1014.3  0.1  746  310           
12 21.02.18 240 (ЮЗ) 10 км  слаб. снег{ливн. осадки}  10/10 2000 м 
[Ac As]
-6.9 -10.3 77 -10  1014.5  0.2  747  310           
18 21.02.18 230 (ЮЗ) 2000 м  снег  10/10 600 м 
[Ns]
-9.1 -11.1 85 -11  1015.5  0.5  747  312           
21 21.02.18 240 (ЮЗ) 10 км  {снег}  10/10 600 м 
[Sc]
-13.4 -15.3 86 -13  1016.2  0.5  747  318           
00 22.02.18 250 (З) 10 км  {снег}  8/8 600 м 
[Sc]
-14.3 -16.5 83 -14  1016.7  0.4  748  319           
09 22.02.18 250 (З) 20000 м  {снег}  10/3 600 м верхняя 
[Sc|Ci fib]
-12 -16.2 71 -16  1018.2  0.8  749  317           
12 22.02.18 240 (ЮЗ) 20000 м  {снег}  10/3 600 м верхняя 
[Sc|Ci fib]
-12.2 -16.6 70 -16  1019  0.8  750  318           
18 22.02.18 170 (Ю) 20000 м  {снег}  10/0 верхняя 
[Ci fib]
-17.4 -19.6 83 -18  1020.8  0.7  751  325           
21 22.02.18 220 (ЮЗ) 20000 м    10/0 верхняя 
[Ci fib]
-19.3 -21.8 80 -20  1021.5  0.5  751  327           
00 23.02.18 170 (Ю) 20000 м    10/0 верхняя 
[Ci fib]
-22.1 -24.9 78 -22  1022.2  0.5  751  331           
06 23.02.18 190 (Ю) 10 км    10/0 верхняя 
[Ci fib]
-19.7 -22.8 76 -22  1022.8  0.4  752  328  -24.3         
09 23.02.18 250 (З) 20000 м    10/0 верхняя 
[Ci fib]
-15 -19.5 68 -19  1022.5  752  322           
12 23.02.18 230 (ЮЗ) 10 км    10/6 2000 м средняя, верхняя 
[Ac trans|Ci fib]
-14.3 -18.7 69 -19  1022.4  752  321           
18 23.02.18 210 (ЮЗ) 10 км    10/10 2000 м 
[Ac und]
-15 -18.4 75 -17  1022.7  0.2  752  322           
21 23.02.18 190 (Ю) 4000 м  слаб. снег  10/10 2000 м 
[Ac As]
-16.6 -19.6 78 -19  1022.9  752  324           
00 24.02.18 180 (Ю) 4000 м  слаб. снег  10/10 2000 м 
[Ac As]
-17.8 -20.6 79 -20  1023.5  0.5  753  326           
09 24.02.18 220 (ЮЗ) 10 км  слаб. снег  10/10 2000 м 
[Ac As]
-13.6 -18.5 67 -17  1024.1  -0.3  753  321           
12 24.02.18 210 (ЮЗ) 20000 м  {снег}  10/8 2000 м средняя, верхняя 
[Ac trans|Ci fib]
-12.8 -17.4 68 -16  1024  -0.3  753  320           
18 24.02.18 320 (СЗ) 4000 м  слаб. снег  10/10 2000 м 
[Ac As]
-17.8 -20.4 80 -18  1025.4  0.9  754  327           
21 24.02.18 300 (СЗ) 20000 м  {снег}  3/0 верхняя 
[Ci fib]
-22.7 -25.5 78 -26  1026.7  0.8  755  333           
00 25.02.18 тихо ()   20000 м  {снег}  ясно 
-26.2 -29.5 74 -26  1027.6  0.6  755  338           
Время (UTC), дата Ветер
(°,м/с) 
Видим.   Явления Облачность Т
(°С)
Тd
(°С)
f(%) Тe
(°С)
Pmin
(гПа)
dP
(гПа)
Po
(мм)
O2
(г/м3)
Тmin Tmax R s Состояние
почвы

Для получения пояснительной информации подведите курсор к названию столбца.

ПОГОДА в Чернушке - архив

Всё, что Вы хотите узнать о погоде в Чернушке - удобно и подробно!

Выберите нужную дату (начиная с 1 января 2015* года) и нажмите кнопку "Найти".
Будут отображены архивные сводки погоды по пункту Чернушка, начиная с указанной даты.


Отображать данные в формате CSV (для использования в таблицах Excel)


Внимание! Наш архив погоды предназначен исключительно для личного некоммерческого использования в познавательных целях. Если Вам необходимы официальные справки о состоянии погоды (для производственных, юридических, коммерческих и т.п. целей), обращайтесь в органы Росгидромета.

*Примечание: данная дата относится к архиву по метеостанциям СССР (Россия, СНГ, Балтия).
Архив по метеостанциям Зарубежной Европы и Азии (кроме Китая) хранится 10 дней, по другим регионам земного шара (Китай, Африка, Америка, Австралия, Океания) - 1 день.

Чернушка - район местоположения метеостанции


Название, широта, долгота, высота метеостанции:
Чернушка 56.5°ш. 56.1°д. 148 м над ур. моря [Российская Федерация]

Дополнительная информация

В oтличие oт бoльшинства пoгoдных сайтoв мы публикуем пoдрoбную метеoинфoрмацию в детальнoм прoфессиoнальнoм фoрмате.

Характеристики температуры и влажнoсти вoздуха измеряются на высoте 2 м в тени вдали oт зданий и деревьев.
Скoрoсть ветра измеряется на высoте 10 м (на урoвне рoста челoвека скoрoсть ветра ниже в 1.5-2 раза). Если метеoстанция нахoдится в гoрoде или в лесу, тo скoрoсть ветра занижена на 2-4 м/с пo сравнению с oткрытым местoм. Скoрoсть ветра над акватoриями крупных рек и oзёр, а также на вершинах хoлмoв на 2-5 м/с выше, чем в oбычных услoвиях.
Атмoсфернoе давление в разных тoчках местнoсти мoжет значительнo oтличаться oт давления на метеoстанции, в зависимoсти oт услoвий рельефа (при пoдъёме на 10 м давление пoнижается примернo на 1 мм рт.ст.).